FW3899 Weather Reports


Display with metric or nautical units.
time (UTC)temp
F
wind
direction
speed
MPH
gust
MPH
rain 1hr
in
rain 24hr
in
rain mn
in
humidity
%
barometer
mb
20260831110113 70 293 4.0 9.0 0.00 0.19 0.19 69 1017.1
20260831104545 69 245 4.0 8.0 0.00 0.19 0.19 70 1017.0
20260831103043 70 274 3.0 8.0 0.00 0.19 0.19 70 1017.1
20260831101542 71 296 1.0 9.0 0.00 0.19 0.19 71 1017.2
20260831100039 71 278 6.0 9.0 0.00 0.19 0.19 72 1017.2
20260831094540 70 279 6.0 13.0 0.00 0.19 0.19 73 1017.2
20260831093034 69 288 9.0 13.0 0.00 0.19 0.19 73 1017.1
20260831091531 68 305 7.0 11.0 0.00 0.19 0.19 77 1017.2
20260831090029 68 289 5.0 10.0 0.00 0.19 0.19 79 1017.3
20260831084537 67 313 5.0 9.0 0.00 0.19 0.19 82 1017.1
20260831083023 66 223 5.0 9.0 0.00 0.19 0.19 83 1017.0
20260831081525 64 226 4.0 9.0 0.00 0.19 0.19 86 1017.0
20260831080020 64 270 3.0 6.0 0.00 0.19 0.19 86 1016.7
20260831074533 64 276 3.0 7.0 0.00 0.19 0.19 88 1016.6
20260831073045 63 306 3.0 7.0 0.00 0.19 0.19 88 1016.6
20260831071516 62 284 5.0 8.0 0.00 0.19 0.19 90 1016.4
20260831070018 62 301 3.0 8.0 0.00 0.19 0.19 91 1016.4
20260831064527 62 272 4.0 7.0 0.00 0.19 0.19 91 1016.3
20260831063017 62 293 4.0 8.0 0.00 0.19 0.19 91 1016.3
20260831061511 62 297 3.0 5.0 0.00 0.19 0.19 93 1016.2
20260831060009 61 293 3.0 4.0 0.00 0.19 0.19 93 1016.2
20260831054506 61 284 3.0 9.0 0.00 0.19 0.19 93 1016.0
20260831053015 61 268 3.0 6.0 0.00 0.19 0.19 93 1015.7
20260831051502 61 254 4.0 8.0 0.00 0.19 0.19 94 1015.8
20260831050139 60 258 5.0 8.0 0.00 0.19 0.19 93 1015.7
20260831044602 60 223 4.0 6.0 0.00 0.19 0.19 92 1015.5
20260831043057 61 263 3.0 9.0 0.00 0.19 0.19 91 1015.6
20260831041556 62 237 6.0 10.0 0.00 0.19 0.19 91 1015.5
20260831040056 62 240 7.0 12.0 0.00 0.19 0.19 90 1015.3
20260831034555 62 241 7.0 12.0 0.00 0.19 0.19 90 1015.3
20260831033054 61 228 6.0 11.0 0.00 0.19 0.19 92 1015.3
20260831031555 61 228 7.0 12.0 0.00 0.19 0.19 93 1015.4
20260831030057 61 226 4.0 7.0 0.00 0.19 0.19 92 1015.5
20260831024549 61 201 6.0 10.0 0.00 0.19 0.19 92 1015.4
20260831023047 61 220 5.0 12.0 0.00 0.19 0.19 92 1015.3
20260831021546 62 230 8.0 12.0 0.00 0.19 0.19 92 1015.3
20260831020045 62 229 7.0 12.0 0.00 0.19 0.19 92 1015.3
20260831014549 62 226 8.0 13.0 0.00 0.19 0.19 91 1015.1
20260831013043 62 256 7.0 11.0 0.00 0.19 0.19 91 1015.0
20260831011542 62 248 5.0 12.0 0.00 0.19 0.19 91 1015.0
20260831010042 62 238 4.0 8.0 0.01 0.19 0.19 92 1014.8
20260831004545 62 225 5.0 8.0 0.07 0.19 0.19 92 1014.7
20260831003040 62 231 5.0 12.0 0.19 0.19 0.19 92 1014.9
20260831001539 62 242 4.0 10.0 0.19 0.19 0.19 92 1014.8
20260831000053 62 259 10.0 19.0 0.17 0.17 0.17 91 1014.4
20260830234532 64 247 19.0 27.0 0.11 0.11 0.11 86 1015.2
20260830233046 66 274 14.0 19.0 0.00 0.00 0.00 82 1013.6
20260830231526 65 264 8.0 12.0 0.00 0.00 0.00 83 1012.8
20260830230025 68 291 5.0 8.0 0.00 0.00 0.00 78 1012.6
20260830224521 68 196 3.0 5.0 0.00 0.00 0.00 77 1012.4
20260830223019 67 186 2.0 4.0 0.00 0.00 0.00 77 1012.3
20260830221516 66 176 0.0 1.0 0.00 0.00 0.00 78 1012.5
20260830220022 66 191 0.0 0.0 0.00 0.00 0.00 79 1012.6
20260830214517 66 191 0.0 0.0 0.00 0.00 0.00 79 1012.7
20260830213018 66 191 0.0 2.0 0.00 0.00 0.00 80 1012.8
20260830211512 66 191 1.0 3.0 0.00 0.00 0.00 81 1013.0
20260830210020 66 191 0.0 0.0 0.00 0.00 0.00 81 1013.1
20260830204511 66 191 0.0 2.0 0.00 0.00 0.00 81 1013.0
20260830203010 66 191 0.0 2.0 0.00 0.00 0.00 81 1013.0
20260830201510 66 191 1.0 3.0 0.00 0.00 0.00 81 1013.0
20260830200009 67 191 0.0 2.0 0.00 0.00 0.00 81 1013.0
20260830194511 67 207 0.0 0.0 0.00 0.00 0.00 82 1013.1
20260830193008 67 207 0.0 0.0 0.00 0.00 0.00 81 1013.4
20260830191528 67 207 0.0 0.0 0.00 0.00 0.00 80 1013.2
20260830190007 68 209 2.0 3.0 0.00 0.00 0.00 79 1013.2
20260830184506 69 213 0.0 0.0 0.00 0.00 0.00 77 1013.0
20260830183006 70 213 0.0 3.0 0.00 0.00 0.00 75 1013.0
20260830181506 72 212 1.0 4.0 0.00 0.00 0.00 72 1012.9
20260830180005 73 288 1.0 3.0 0.00 0.00 0.00 69 1012.9
20260830174504 74 288 1.0 4.0 0.00 0.00 0.00 67 1012.9
20260830173009 75 240 2.0 4.0 0.00 0.00 0.00 63 1012.8
20260830171503 77 253 1.0 4.0 0.00 0.00 0.00 60 1012.7
20260830170000 79 254 2.0 4.0 0.00 0.00 0.00 58 1012.8
20260830164600 80 217 4.0 9.0 0.00 0.00 0.00 53 1012.8
20260830163058 80 297 4.0 7.0 0.00 0.00 0.00 54 1012.8
20260830161605 80 270 7.0 11.0 0.00 0.00 0.00 53 1013.0
20260830160057 79 264 1.0 7.0 0.00 0.00 0.00 54 1013.0
20260830154602 78 206 3.0 7.0 0.00 0.00 0.00 53 1013.0
20260830153054 79 238 6.0 11.0 0.00 0.00 0.00 54 1013.1
20260830151553 80 247 4.0 12.0 0.00 0.00 0.00 52 1013.2
20260830150052 80 246 7.0 12.0 0.00 0.00 0.00 52 1013.2
20260830144602 80 224 4.0 13.0 0.00 0.00 0.00 53 1013.3
20260830143049 81 282 10.0 15.0 0.00 0.00 0.00 53 1013.3
20260830141549 81 279 9.0 15.0 0.00 0.00 0.00 53 1013.3
20260830140051 80 284 11.0 16.0 0.00 0.00 0.00 54 1013.6
20260830134545 80 278 10.0 15.0 0.00 0.00 0.00 54 1013.7
20260830133055 80 257 4.0 18.0 0.00 0.00 0.00 57 1014.0
20260830131552 79 238 10.0 18.0 0.00 0.00 0.00 56 1014.1
20260830130140 79 253 10.0 19.0 0.00 0.00 0.00 57 1014.1
20260830124537 78 211 9.0 13.0 0.00 0.00 0.00 61 1014.2
20260830123035 78 249 8.0 11.0 0.00 0.00 0.00 60 1014.4
20260830121533 77 256 8.0 16.0 0.00 0.00 0.00 62 1014.4
20260830120044 77 200 9.0 18.0 0.00 0.00 0.00 61 1014.5
20260830114533 77 299 12.0 16.0 0.00 0.00 0.00 60 1014.6
20260830113029 77 287 12.0 17.0 0.00 0.00 0.00 63 1014.6
20260830111531 76 243 11.0 16.0 0.00 0.00 0.00 61 1014.8